Time,TemperatureF,DewpointF,PressureIn,WindDirection,WindDirectionDegrees,WindSpeedMPH,WindSpeedGustMPH,Humidity,HourlyPrecipIn,Conditions,Clouds,dailyrainin,SoftwareType,DateUTC
2013-04-23 00:01:00,42.4,28.7,29.61,WSW,247,2.7,-999.0,58,-99.99,,,0.00,Acu-Link.com,2013-04-23 06:01:00,
2013-04-23 00:19:00,41.2,28.0,29.61,NE,45,2.2,-999.0,59,-99.99,,,0.00,Acu-Link.com,2013-04-23 06:19:00,
2013-04-23 00:43:00,37.9,27.9,29.62,West,270,1.7,-999.0,67,-99.99,,,0.00,Acu-Link.com,2013-04-23 06:43:00,
2013-04-23 00:58:00,36.5,29.3,29.61,East,90,3.2,-999.0,75,-99.99,,,0.00,Acu-Link.com,2013-04-23 06:58:00,
2013-04-23 01:13:00,36.5,29.0,29.60,NE,45,5.8,-999.0,74,-99.99,,,0.00,Acu-Link.com,2013-04-23 07:13:00,
2013-04-23 01:28:00,36.5,29.7,29.61,ENE,67,4.7,-999.0,76,-99.99,,,0.00,Acu-Link.com,2013-04-23 07:28:00,
2013-04-23 01:43:00,36.7,28.9,29.60,NE,45,0.0,-999.0,73,-99.99,,,0.00,Acu-Link.com,2013-04-23 07:43:00,
2013-04-23 01:59:00,36.3,28.2,29.60,WSW,247,0.0,-999.0,72,-99.99,,,0.00,Acu-Link.com,2013-04-23 07:59:00,
2013-04-23 02:14:00,37.9,28.3,29.61,SW,225,5.8,-999.0,68,-99.99,,,0.00,Acu-Link.com,2013-04-23 08:14:00,
2013-04-23 02:29:00,37.4,27.8,29.61,SSW,202,7.3,-999.0,68,-99.99,,,0.00,Acu-Link.com,2013-04-23 08:29:00,
2013-04-23 02:44:00,36.9,28.0,29.60,SW,225,4.2,-999.0,70,-99.99,,,0.00,Acu-Link.com,2013-04-23 08:44:00,
2013-04-23 03:00:00,34.5,28.0,29.62,NE,45,8.9,-999.0,77,-99.99,,,0.00,Acu-Link.com,2013-04-23 09:00:00,
2013-04-23 03:15:00,33.3,28.1,29.64,NNW,337,6.3,-999.0,81,-99.99,,,0.00,Acu-Link.com,2013-04-23 09:15:00,
2013-04-23 03:30:00,30.9,30.4,29.63,NW,315,10.4,-999.0,98,-99.99,,,0.00,Acu-Link.com,2013-04-23 09:30:00,
2013-04-23 03:45:00,30.0,29.5,29.64,NNE,22,6.3,-999.0,98,-99.99,,,0.00,Acu-Link.com,2013-04-23 09:45:00,
2013-04-23 04:00:00,30.7,26.4,29.64,North,0,5.8,-999.0,84,-99.99,,,0.00,Acu-Link.com,2013-04-23 10:00:00,
2013-04-23 04:16:00,30.7,26.4,29.65,NNE,22,8.9,-999.0,84,-99.99,,,0.00,Acu-Link.com,2013-04-23 10:16:00,
2013-04-23 04:31:00,30.6,27.2,29.66,ESE,112,2.7,-999.0,87,-99.99,,,0.00,Acu-Link.com,2013-04-23 10:31:00,
2013-04-23 04:46:00,29.8,29.3,29.67,SSW,202,2.2,-999.0,98,-99.99,,,0.00,Acu-Link.com,2013-04-23 10:46:00,
2013-04-23 05:01:00,30.0,29.5,29.68,SSW,202,1.7,-999.0,98,-99.99,,,0.00,Acu-Link.com,2013-04-23 11:01:00,
2013-04-23 05:17:00,28.8,28.3,29.67,ESE,112,2.7,-999.0,98,-99.99,,,0.00,Acu-Link.com,2013-04-23 11:17:00,
2013-04-23 05:38:00,28.4,27.9,29.67,SSW,202,1.1,-999.0,98,-99.99,,,0.00,Acu-Link.com,2013-04-23 11:38:00,
2013-04-23 05:54:00,28.2,27.7,29.66,South,180,2.2,-999.0,98,-99.99,,,0.00,Acu-Link.com,2013-04-23 11:54:00,
2013-04-23 06:10:00,29.3,28.8,29.66,SSW,202,6.8,-999.0,98,-99.99,,,0.00,Acu-Link.com,2013-04-23 12:10:00,
2013-04-23 06:25:00,29.5,29.0,29.66,WSW,247,3.7,-999.0,98,-99.99,,,0.00,Acu-Link.com,2013-04-23 12:25:00,
2013-04-23 06:40:00,29.3,28.8,29.66,SSW,202,7.3,-999.0,98,-99.99,,,0.00,Acu-Link.com,2013-04-23 12:40:00,
2013-04-23 07:16:00,29.3,28.8,29.67,West,270,4.7,-999.0,98,-99.99,,,0.00,Acu-Link.com,2013-04-23 13:16:00,
2013-04-23 07:31:00,31.6,30.6,29.67,WSW,247,4.7,-999.0,96,-99.99,,,0.00,Acu-Link.com,2013-04-23 13:31:00,
2013-04-23 07:47:00,34.7,30.4,29.67,SW,225,4.7,-999.0,84,-99.99,,,0.00,Acu-Link.com,2013-04-23 13:47:00,
2013-04-23 08:02:00,37.9,31.0,29.67,West,270,6.3,-999.0,76,-99.99,,,0.00,Acu-Link.com,2013-04-23 14:02:00,
2013-04-23 08:17:00,38.8,31.2,29.66,SW,225,6.8,-999.0,74,-99.99,,,0.00,Acu-Link.com,2013-04-23 14:17:00,
2013-04-23 08:40:00,38.7,31.1,29.66,West,270,7.3,-999.0,74,-99.99,,,0.00,Acu-Link.com,2013-04-23 14:40:00,
2013-04-23 08:56:00,37.0,29.5,29.66,South,180,4.7,-999.0,74,-99.99,,,0.00,Acu-Link.com,2013-04-23 14:56:00,
2013-04-23 09:49:00,35.8,28.3,29.65,SSW,202,6.8,-999.0,74,-99.99,,,0.01,Acu-Link.com,2013-04-23 15:49:00,
2013-04-23 10:05:00,35.4,26.3,29.66,West,270,11.9,-999.0,69,-99.99,,,0.01,Acu-Link.com,2013-04-23 16:05:00,
2013-04-23 10:46:00,43.0,26.6,29.66,North,0,4.7,-999.0,52,-99.99,,,0.01,Acu-Link.com,2013-04-23 16:46:00,
2013-04-23 11:02:00,41.5,24.7,29.67,SSW,202,4.7,-999.0,51,-99.99,,,0.01,Acu-Link.com,2013-04-23 17:02:00,
2013-04-23 11:17:00,40.1,23.0,29.67,SW,225,8.3,-999.0,50,-99.99,,,0.01,Acu-Link.com,2013-04-23 17:17:00,
2013-04-23 11:33:00,37.9,22.3,29.67,South,180,6.3,-999.0,53,-99.99,,,0.01,Acu-Link.com,2013-04-23 17:33:00,
2013-04-23 11:48:00,37.9,20.9,29.68,SSW,202,8.9,-999.0,50,-99.99,,,0.01,Acu-Link.com,2013-04-23 17:48:00,
2013-04-23 12:04:00,44.1,24.7,29.68,WSW,247,7.8,-999.0,46,-99.99,,,0.01,Acu-Link.com,2013-04-23 18:04:00,
2013-04-23 12:19:00,40.5,22.9,29.68,SW,225,6.3,-999.0,49,-99.99,,,0.01,Acu-Link.com,2013-04-23 18:19:00,
2013-04-23 12:39:00,39.9,20.3,29.68,SSE,157,12.5,-999.0,45,-99.99,,,0.01,Acu-Link.com,2013-04-23 18:39:00,
2013-04-23 12:59:00,39.6,19.0,29.67,South,180,5.3,-999.0,43,-99.99,,,0.01,Acu-Link.com,2013-04-23 18:59:00,
2013-04-23 13:37:00,39.7,20.1,29.67,SSW,202,8.9,-999.0,45,-99.99,,,0.01,Acu-Link.com,2013-04-23 19:37:00,
2013-04-23 13:54:00,39.7,20.1,29.68,NNW,337,7.3,-999.0,45,-99.99,,,0.01,Acu-Link.com,2013-04-23 19:54:00,
2013-04-23 14:16:00,42.6,22.2,29.69,NNW,337,4.2,-999.0,44,-99.99,,,0.01,Acu-Link.com,2013-04-23 20:16:00,
2013-04-23 15:36:00,45.1,19.1,29.70,NW,315,6.3,-999.0,35,-99.99,,,0.01,Acu-Link.com,2013-04-23 21:36:00,
2013-04-23 16:12:00,43.0,18.5,29.70,North,0,6.8,-999.0,37,-99.99,,,0.01,Acu-Link.com,2013-04-23 22:12:00,
2013-04-23 16:27:00,43.0,22.1,29.70,ENE,67,2.2,-999.0,43,-99.99,,,0.01,Acu-Link.com,2013-04-23 22:27:00,
2013-04-23 16:42:00,44.4,19.1,29.69,SE,135,5.8,-999.0,36,-99.99,,,0.01,Acu-Link.com,2013-04-23 22:42:00,
2013-04-23 16:58:00,43.5,19.0,29.70,SSW,202,7.8,-999.0,37,-99.99,,,0.01,Acu-Link.com,2013-04-23 22:58:00,
2013-04-23 17:13:00,44.1,18.2,29.71,SSW,202,8.9,-999.0,35,-99.99,,,0.01,Acu-Link.com,2013-04-23 23:13:00,
2013-04-23 17:28:00,40.8,17.2,29.71,SSE,157,1.7,-999.0,38,-99.99,,,0.01,Acu-Link.com,2013-04-23 23:28:00,
2013-04-23 17:43:00,42.1,20.1,29.72,SW,225,2.7,-999.0,41,-99.99,,,0.01,Acu-Link.com,2013-04-23 23:43:00,
2013-04-23 17:58:00,39.7,19.6,29.74,NW,315,4.2,-999.0,44,-99.99,,,0.01,Acu-Link.com,2013-04-23 23:58:00,
2013-04-23 18:13:00,39.0,21.0,29.75,NNW,337,5.8,-999.0,48,-99.99,,,0.01,Acu-Link.com,2013-04-24 00:13:00,
2013-04-23 18:28:00,37.2,18.9,29.76,South,180,7.8,-999.0,47,-99.99,,,0.01,Acu-Link.com,2013-04-24 00:28:00,
2013-04-23 18:44:00,37.4,18.5,29.76,NNE,22,3.7,-999.0,46,-99.99,,,0.01,Acu-Link.com,2013-04-24 00:44:00,
2013-04-23 18:59:00,36.3,18.0,29.77,NNW,337,4.7,-999.0,47,-99.99,,,0.01,Acu-Link.com,2013-04-24 00:59:00,
2013-04-23 19:15:00,34.3,17.1,29.77,ENE,67,5.8,-999.0,49,-99.99,,,0.01,Acu-Link.com,2013-04-24 01:15:00,
2013-04-23 19:30:00,33.6,16.0,29.76,NNE,22,6.3,-999.0,48,-99.99,,,0.01,Acu-Link.com,2013-04-24 01:30:00,
2013-04-23 19:45:00,32.7,15.7,29.78,NNE,22,4.7,-999.0,49,-99.99,,,0.01,Acu-Link.com,2013-04-24 01:45:00,
2013-04-23 20:00:00,32.2,15.7,29.78,NNE,22,8.3,-999.0,50,-99.99,,,0.01,Acu-Link.com,2013-04-24 02:00:00,
2013-04-23 20:30:00,30.7,15.2,29.80,ENE,67,3.2,-999.0,52,-99.99,,,0.01,Acu-Link.com,2013-04-24 02:30:00,
2013-04-23 20:45:00,29.1,15.0,29.81,NE,45,4.2,-999.0,55,-99.99,,,0.01,Acu-Link.com,2013-04-24 02:45:00,
2013-04-23 21:01:00,28.6,14.9,29.82,NW,315,2.2,-999.0,56,-99.99,,,0.01,Acu-Link.com,2013-04-24 03:01:00,
2013-04-23 21:16:00,26.8,14.8,29.82,SSW,202,0.0,-999.0,60,-99.99,,,0.01,Acu-Link.com,2013-04-24 03:16:00,
2013-04-23 21:31:00,24.8,15.8,29.83,WSW,247,2.7,-999.0,68,-99.99,,,0.01,Acu-Link.com,2013-04-24 03:31:00,
2013-04-23 21:46:00,25.7,15.6,29.84,North,0,4.2,-999.0,65,-99.99,,,0.01,Acu-Link.com,2013-04-24 03:46:00,
2013-04-23 22:01:00,25.5,15.4,29.84,South,180,1.7,-999.0,65,-99.99,,,0.01,Acu-Link.com,2013-04-24 04:01:00,
2013-04-23 22:17:00,23.0,14.7,29.86,WSW,247,1.7,-999.0,70,-99.99,,,0.01,Acu-Link.com,2013-04-24 04:17:00,
2013-04-23 22:32:00,21.2,13.6,29.86,SW,225,0.0,-999.0,72,-99.99,,,0.01,Acu-Link.com,2013-04-24 04:32:00,
2013-04-23 22:47:00,20.1,13.5,29.84,NW,315,1.1,-999.0,75,-99.99,,,0.01,Acu-Link.com,2013-04-24 04:47:00,
2013-04-23 23:03:00,19.2,12.6,29.85,NNE,22,0.0,-999.0,75,-99.99,,,0.01,Acu-Link.com,2013-04-24 05:03:00,
2013-04-23 23:18:00,19.0,13.6,29.85,NNW,337,0.0,-999.0,79,-99.99,,,0.01,Acu-Link.com,2013-04-24 05:18:00,
2013-04-23 23:33:00,19.9,13.0,29.86,WSW,247,0.0,-999.0,74,-99.99,,,0.01,Acu-Link.com,2013-04-24 05:33:00,
2013-04-23 23:48:00,18.9,12.3,29.85,East,90,0.0,-999.0,75,-99.99,,,0.01,Acu-Link.com,2013-04-24 05:48:00,